When you browse on this site, cookies collect data to enhance your experience and personalize the content and advertising you see.
Visit our Privacy Policy to learn more. By continuing to use the site, you agree to this use of cookies and data.
  • In United Kingdom
  • List of Countries
  • For 7 days
  • Water Temperature
  • Weather Map
  • Weather Widgets
  • user-avatar
    Login

    Hourly Weather Plovdiv

    Today, 30 March, Monday

    Time Temperature Precipitation Wind Pressure Humidity
    00:00 +8°C° 0 mm 2 mps 734 mmHg 74%
    01:00 +8°C° 0 mm 2 mps 734 mmHg 74%
    02:00 +8°C° 0 mm 2 mps 734 mmHg 74%
    03:00 +8°C° 0 mm 2 mps 734 mmHg 74%
    04:00 +7°C° 0 mm 2 mps 734 mmHg 74%
    05:00 +7°C° 0 mm 2 mps 734 mmHg 75%
    06:00 +9°C° 0 mm 2 mps 734 mmHg 71%
    07:00 +10°C° 0 mm 2 mps 734 mmHg 68%
    08:00 +12°C° 0 mm 2 mps 734 mmHg 63%
    09:00 +13°C° 0 mm 3 mps 735 mmHg 57%
    10:00 +14°C° 0 mm 3 mps 735 mmHg 51%
    11:00 +16°C° 0 mm 3 mps 735 mmHg 45%
    12:00 +17°C° 0 mm 3 mps 735 mmHg 44%
    13:00 +17°C° 0 mm 3 mps 735 mmHg 43%
    14:00 +18°C° 0 mm 3 mps 734 mmHg 42%
    15:00 +18°C° 0.1 mm 3 mps 734 mmHg 45%
    16:00 +17°C° 0.1 mm 2 mps 734 mmHg 48%
    17:00 +17°C° 0.1 mm 2 mps 734 mmHg 50%
    18:00 +15°C° 0.1 mm 2 mps 734 mmHg 58%
    19:00 +13°C° 0.1 mm 1 mps 735 mmHg 65%
    20:00 +12°C° 0.1 mm 1 mps 735 mmHg 72%
    21:00 +12°C° 0 mm 1 mps 736 mmHg 74%
    22:00 +11°C° 0 mm 1 mps 736 mmHg 76%
    23:00 +11°C° 0 mm 1 mps 736 mmHg 78%

    Tomorrow, 31 March, Tuesday

    Time Temperature Precipitation Wind Pressure Humidity
    00:00 +11°C° 0.1 mm 1 mps 736 mmHg 79%
    01:00 +10°C° 0.1 mm 1 mps 736 mmHg 80%
    02:00 +10°C° 0.1 mm 1 mps 736 mmHg 81%
    03:00 +9°C° 0.1 mm 1 mps 736 mmHg 82%
    04:00 +9°C° 0.1 mm 1 mps 737 mmHg 82%
    05:00 +8°C° 0.1 mm 2 mps 737 mmHg 82%
    06:00 +8°C° 0.1 mm 2 mps 737 mmHg 81%
    07:00 +8°C° 0.1 mm 2 mps 737 mmHg 79%
    08:00 +8°C° 0.1 mm 2 mps 737 mmHg 77%
    09:00 +9°C° 0.1 mm 2 mps 737 mmHg 73%
    10:00 +10°C° 0.1 mm 2 mps 738 mmHg 70%
    11:00 +12°C° 0.1 mm 2 mps 738 mmHg 66%
    12:00 +12°C° 0.1 mm 2 mps 737 mmHg 69%
    13:00 +12°C° 0.1 mm 2 mps 737 mmHg 72%
    14:00 +12°C° 0.1 mm 2 mps 737 mmHg 75%
    15:00 +10°C° 0.4 mm 2 mps 737 mmHg 79%
    16:00 +10°C° 0.4 mm 2 mps 737 mmHg 82%
    17:00 +10°C° 0.4 mm 1 mps 737 mmHg 85%
    18:00 +9°C° 0.3 mm 2 mps 737 mmHg 87%
    19:00 +8°C° 0.3 mm 2 mps 737 mmHg 90%
    20:00 +8°C° 0.3 mm 2 mps 738 mmHg 92%
    21:00 +7°C° 0.5 mm 2 mps 738 mmHg 93%
    22:00 +7°C° 0.5 mm 2 mps 738 mmHg 94%
    23:00 +6°C° 0.5 mm 2 mps 738 mmHg 94%

    Day after tomorrow, 1 April, Wednesday

    Time Temperature Precipitation Wind Pressure Humidity
    00:00 +6°C° 1.7 mm 2 mps 738 mmHg 95%
    01:00 +5°C° 1.7 mm 2 mps 738 mmHg 96%
    02:00 +5°C° 1.7 mm 2 mps 738 mmHg 97%
    03:00 +3°C° 1.1 mm 3 mps 738 mmHg 97%
    04:00 +3°C° 1.1 mm 3 mps 738 mmHg 97%
    05:00 +3°C° 1.1 mm 3 mps 738 mmHg 97%
    06:00 +2°C° 0.7 mm 3 mps 738 mmHg 97%
    07:00 +2°C° 0.7 mm 3 mps 738 mmHg 97%
    08:00 +1°C° 0.7 mm 4 mps 738 mmHg 97%
    09:00 +3°C° 0.3 mm 4 mps 738 mmHg 94%
    10:00 +3°C° 0.3 mm 4 mps 738 mmHg 92%
    11:00 +4°C° 0.3 mm 4 mps 738 mmHg 89%
    12:00 +4°C° 0.2 mm 4 mps 738 mmHg 90%
    13:00 +4°C° 0.2 mm 4 mps 738 mmHg 92%
    14:00 +4°C° 0.2 mm 4 mps 738 mmHg 93%
    15:00 +4°C° 0.6 mm 4 mps 737 mmHg 94%
    16:00 +4°C° 0.6 mm 4 mps 737 mmHg 95%
    17:00 +3°C° 0.6 mm 3 mps 736 mmHg 96%
    18:00 +3°C° 0.5 mm 3 mps 736 mmHg 97%
    19:00 +3°C° 0.5 mm 3 mps 736 mmHg 97%
    20:00 +3°C° 0.5 mm 3 mps 736 mmHg 97%
    21:00 +3°C° 1 mm 3 mps 736 mmHg 97%
    22:00 +4°C° 1 mm 2 mps 736 mmHg 97%
    23:00 +4°C° 1 mm 2 mps 736 mmHg 97%

    2 April, Thursday

    Time Temperature Precipitation Wind Pressure Humidity
    00:00 +4°C° 1.1 mm 2 mps 736 mmHg 97%
    01:00 +4°C° 1.1 mm 2 mps 736 mmHg 97%
    02:00 +3°C° 1.1 mm 2 mps 736 mmHg 97%
    03:00 +3°C° 1.4 mm 2 mps 736 mmHg 97%
    04:00 +3°C° 1.4 mm 2 mps 736 mmHg 97%
    05:00 +3°C° 1.4 mm 2 mps 735 mmHg 97%
    06:00 +3°C° 1 mm 2 mps 736 mmHg 97%
    07:00 +3°C° 1 mm 2 mps 736 mmHg 97%
    08:00 +4°C° 1 mm 2 mps 737 mmHg 97%
    09:00 +4°C° 0.5 mm 2 mps 737 mmHg 96%
    10:00 +4°C° 0.5 mm 2 mps 737 mmHg 95%
    11:00 +5°C° 0.5 mm 2 mps 737 mmHg 95%
    12:00 +6°C° 0.1 mm 2 mps 737 mmHg 93%
    13:00 +6°C° 0.1 mm 2 mps 737 mmHg 91%
    14:00 +7°C° 0.1 mm 2 mps 737 mmHg 89%
    15:00 +8°C° 0 mm 1 mps 737 mmHg 89%
    16:00 +8°C° 0 mm 1 mps 737 mmHg 88%
    17:00 +8°C° 0 mm 1 mps 737 mmHg 88%
    18:00 +7°C° 0 mm 1 mps 737 mmHg 88%
    19:00 +6°C° 0 mm 1 mps 737 mmHg 89%
    20:00 +5°C° 0 mm 1 mps 737 mmHg 90%
    21:00 +5°C° 0 mm 1 mps 738 mmHg 89%
    22:00 +4°C° 0 mm 1 mps 738 mmHg 89%
    23:00 +4°C° 0 mm 1 mps 738 mmHg 88%

    3 April, Friday

    Time Temperature Precipitation Wind Pressure Humidity
    00:00 +4°C° 0 mm 1 mps 738 mmHg 88%
    01:00 +4°C° 0 mm 1 mps 738 mmHg 88%
    02:00 +3°C° 0 mm 1 mps 738 mmHg 89%
    03:00 +3°C° 0 mm 1 mps 738 mmHg 89%
    04:00 +3°C° 0 mm 1 mps 738 mmHg 89%
    05:00 +3°C° 0 mm 1 mps 738 mmHg 89%
    06:00 +4°C° 0 mm 1 mps 738 mmHg 89%
    07:00 +5°C° 0 mm 1 mps 738 mmHg 89%
    08:00 +6°C° 0 mm 0 mps 739 mmHg 89%
    09:00 +7°C° 0 mm 0 mps 739 mmHg 87%
    10:00 +9°C° 0 mm 1 mps 739 mmHg 85%
    11:00 +10°C° 0 mm 1 mps 739 mmHg 84%
    12:00 +11°C° 0 mm 1 mps 739 mmHg 82%
    13:00 +11°C° 0 mm 1 mps 739 mmHg 81%
    14:00 +12°C° 0 mm 1 mps 739 mmHg 80%
    15:00 +12°C° 0 mm 1 mps 738 mmHg 80%
    16:00 +11°C° 0 mm 0 mps 738 mmHg 81%
    17:00 +11°C° 0 mm 0 mps 738 mmHg 81%
    18:00 +10°C° 0 mm 0 mps 738 mmHg 83%
    19:00 +10°C° 0 mm 1 mps 739 mmHg 85%
    20:00 +9°C° 0 mm 1 mps 739 mmHg 87%
    21:00 +9°C° 0 mm 1 mps 739 mmHg 87%
    22:00 +8°C° 0 mm 1 mps 740 mmHg 87%
    23:00 +8°C° 0 mm 1 mps 740 mmHg 88%

    4 April, Saturday

    Time Temperature Precipitation Wind Pressure Humidity
    00:00 +8°C° 0 mm 1 mps 740 mmHg 88%
    01:00 +8°C° 0 mm 1 mps 740 mmHg 88%
    02:00 +7°C° 0 mm 0 mps 740 mmHg 88%
    03:00 +7°C° 0 mm 0 mps 740 mmHg 88%
    04:00 +7°C° 0 mm 0 mps 741 mmHg 87%
    05:00 +6°C° 0 mm 0 mps 741 mmHg 87%
    06:00 +7°C° 0 mm 0 mps 741 mmHg 87%
    07:00 +8°C° 0 mm 0 mps 742 mmHg 86%
    08:00 +8°C° 0 mm 0 mps 742 mmHg 85%
    09:00 +9°C° 0 mm 0 mps 742 mmHg 82%
    10:00 +11°C° 0 mm 1 mps 742 mmHg 80%
    11:00 +12°C° 0 mm 1 mps 742 mmHg 77%
    12:00 +12°C° 0 mm 1 mps 742 mmHg 76%
    13:00 +13°C° 0 mm 1 mps 742 mmHg 74%
    14:00 +13°C° 0 mm 1 mps 742 mmHg 72%
    15:00 +13°C° 0.1 mm 1 mps 742 mmHg 74%
    16:00 +13°C° 0.1 mm 1 mps 741 mmHg 75%
    17:00 +13°C° 0.1 mm 1 mps 741 mmHg 77%
    18:00 +12°C° 0 mm 1 mps 742 mmHg 80%
    19:00 +11°C° 0 mm 1 mps 742 mmHg 83%
    20:00 +10°C° 0 mm 1 mps 742 mmHg 86%
    21:00 +10°C° 0 mm 1 mps 743 mmHg 86%
    22:00 +10°C° 0 mm 1 mps 743 mmHg 86%
    23:00 +10°C° 0 mm 1 mps 744 mmHg 87%
    Show more